Location: Corcelles
(46.1547°N, 4.7234°E)
Time: 21:02:13
(UTC+00:00)

Landsat 5 - Pass Details

Date: 14 July 2020
Orbit: 529 x 654 km, 98.2° (Epoch: 14 August)

Event Time Altitude Azimuth Distance (km) Brightness Sun altitude
Rises 03:07:08 0° 164° (SSE) 2,720 6.6 -8.5°
Reaches altitude 10° 03:09:16 10° 164° (SSE) 1,815 5.7 -8.2°
Maximum altitude 03:13:11 89° 82° (E) 545 3.3 -7.8°
Drops below altitude 10° 03:17:03 10° 347° (NNW) 1,792 6.3 -7.3°
Sets 03:19:09 0° 347° (NNW) 2,683 7.3 -7.0°
